KIAH

Houston/George Bush Intercontinental Airport

Airport
ICAO code
KIAH
IATA Code
IAH
Summary
ICAO Region
NAM
ICAO Territory
Location

Aldine, Texas

Serving
Houston
Elevation
97 ft
Coordinates
29° 59' 4" N , 95° 20' 29" W
KCC
Airport LOS
Parallel Runway Operation
Airport WX
Tropical Revolving Storm
Metar
KIAH 251853Z 10007KT 5SM -RA BR SCT015 BKN070 OVC110 23/23 A3014 RMK AO2 SLP205 P0005 T02330228

International airport located 23 miles north of Houston, Texas, USA. Originally named Houston Intercontinental Airport, it was later renamed after President George H. W. Bush.

 

Airport map

Aerial View

SKYbrary Partners:

Safety knowledge contributed by: